GFSGL_925_spd_333.txt.gz
Wind_Speed
27 31 32 32 25 18 12 16 13 12 12 14 13 12 11 10 10 9 9 9 9 9 8 9 9 10 8 7 5 6 5 4 4 4 2 1 4 3 4 4 6 6 5
27 25 25 26 20 13 12 18 15 13 16 15 13 12 11 10 10 10 8 7 8 9 9 10 10 8 8 7 6 4 2 1 1 1 0 1 1 3 3 3 3 4 6
26 21 19 17 16 17 17 17 16 16 15 14 13 12 11 10 9 9 9 9 8 7 8 8 7 6 6 6 4 5 4 4 2 2 3 4 4 4 5 6 6 7 7
20 21 21 19 18 18 18 17 16 15 14 12 10 10 9 10 9 9 8 7 7 6 5 4 5 4 4 4 5 5 5 5 4 5 6 6 7 5 7 7 9 8 10
21 17 16 17 16 15 14 12 11 11 10 10 10 10 11 11 10 10 8 6 6 5 6 6 5 6 7 6 5 6 6 7 6 6 7 7 9 9 9 9 12 12 14
14 16 15 16 15 14 13 12 11 10 10 10 10 10 9 7 8 8 7 7 7 6 6 5 6 7 8 9 9 10 10 9 9 9 9 10 13 12 11 11 11 13 13
11 13 14 14 13 14 13 11 11 11 10 9 8 8 8 7 8 8 9 9 8 7 7 8 8 9 9 8 10 11 13 14 14 12 14 14 12 11 10 11 11 12 15
12 13 14 15 14 12 13 13 12 11 10 9 9 10 9 10 11 10 9 10 10 12 11 11 11 12 12 12 11 12 13 14 15 15 17 18 15 15 14 14 14 15 19
13 14 15 15 15 15 14 14 13 12 12 12 11 10 10 9 9 10 11 10 11 11 11 12 12 13 15 13 13 15 16 18 17 21 23 23 22 20 20 16 18 19 21
15 15 15 16 16 16 16 16 14 13 11 10 9 10 11 12 10 10 10 10 11 11 11 13 15 16 15 14 15 14 17 19 15 16 16 18 20 21 21 20 18 18 20
15 15 15 16 15 15 14 13 12 11 10 10 10 11 12 11 10 10 11 12 12 11 11 11 11 11 10 13 17 18 21 18 17 18 19 20 19 18 15 13 14 15 17
16 16 15 15 14 13 13 12 12 12 11 10 9 10 11 11 11 11 10 11 12 12 13 13 13 16 15 14 15 20 21 22 20 19 19 21 19 19 19 14 11 13 14
17 17 16 15 14 14 14 12 11 10 11 10 9 9 9 8 9 9 10 11 12 15 16 16 17 18 18 19 19 20 18 17 17 18 20 21 20 19 16 14 13 11 12
19 17 16 16 15 14 13 12 11 10 11 10 10 11 10 10 9 9 9 10 11 13 15 16 19 21 22 22 22 17 16 15 14 17 19 18 13 13 15 13 12 13 13
17 15 15 16 15 13 13 12 12 12 11 10 9 8 8 8 7 6 6 6 7 10 15 15 15 14 14 14 13 13 10 10 11 12 12 13 15 14 14 12 14 14 11
16 16 16 15 14 13 12 12 15 16 16 14 16 16 13 15 14 13 12 13 15 17 14 14 15 13 11 10 9 10 10 9 8 9 10 11 13 13 13 14 13 11 10
20 18 17 18 15 14 14 14 14 13 14 18 19 17 18 17 18 18 17 18 19 18 13 12 9 8 8 8 9 8 7 6 7 8 10 12 13 14 15 13 12 10 10
22 21 17 16 17 16 15 14 12 11 9 9 11 15 17 19 21 21 21 20 14 14 11 10 8 7 8 8 6 6 7 8 9 10 11 12 13 11 12 14 12 10 7
22 20 19 19 18 17 14 12 12 11 12 14 13 14 14 12 14 16 16 15 13 12 10 10 8 8 8 7 7 7 7 8 8 7 8 10 13 12 13 11 7 7 7
22 26 22 19 18 18 18 15 14 13 14 15 15 15 8 10 9 9 12 12 14 13 11 12 10 9 9 9 8 7 8 8 8 10 11 11 11 11 8 6 7 8 9
21 22 26 23 21 21 20 18 16 16 16 16 16 16 17 13 14 14 14 15 16 15 13 13 11 11 11 10 8 8 10 11 12 12 13 12 9 10 10 10 10 10 9
19 19 18 20 22 19 18 18 17 17 18 17 19 18 19 18 16 17 15 16 17 16 16 15 14 13 13 11 9 10 11 11 12 13 13 13 13 13 12 12 11 12 13
16 18 18 18 18 18 17 18 18 18 19 20 20 20 18 18 19 18 18 18 19 18 18 17 15 15 14 12 11 11 12 12 12 12 13 15 16 15 14 13 13 12 12
14 15 18 18 17 15 17 19 19 20 21 22 22 21 21 21 21 20 19 18 17 19 20 20 18 18 16 15 13 11 11 11 10 11 13 14 13 12 13 12 12 13 14
16 14 15 17 16 15 17 19 20 22 21 21 22 21 21 20 20 19 18 16 18 20 23 23 21 21 21 17 13 11 11 12 11 11 9 9 10 11 12 12 12 14 15
17 17 16 16 16 17 19 20 21 21 21 21 21 21 20 19 19 18 17 18 19 22 22 22 23 23 21 18 16 15 12 10 10 10 8 9 11 12 13 13 13 15 16

GFSGL_925_spd_339.txt.gz
Wind_Speed
26 32 38 36 20 26 35 34 23 17 13 15 13 11 10 9 10 9 7 8 9 6 3 4 2 1 5 1 1 2 1 1 3 4 2 3 1 2 3 3 5 6 4
33 35 41 35 26 30 21 16 18 15 15 13 11 10 11 10 11 9 9 8 7 5 6 5 5 5 3 3 3 4 3 1 5 2 3 6 3 2 2 3 5 6 5
27 29 29 20 21 19 18 21 17 17 14 11 11 11 12 11 9 9 9 9 10 10 10 9 7 6 6 5 4 4 4 5 4 7 2 8 3 4 3 9 7 8 9
23 25 23 22 20 21 20 17 20 18 17 15 14 14 13 12 12 11 11 10 9 9 9 9 9 8 7 4 4 4 5 4 7 7 9 6 7 7 6 7 11 11 9
17 21 22 25 25 21 19 16 17 17 15 14 14 12 12 12 12 12 12 11 11 10 11 10 9 8 7 7 6 3 3 7 10 10 7 6 7 3 6 10 10 10 9
19 20 19 17 16 15 16 17 15 15 16 14 14 15 14 14 16 15 12 12 11 10 9 8 7 9 12 13 13 11 8 6 9 10 12 9 6 6 7 9 12 14 13
12 15 16 18 20 19 17 17 16 16 17 16 13 13 12 9 11 15 14 7 9 9 9 9 9 12 13 9 11 10 12 14 15 12 11 13 14 8 10 9 11 12 14
12 10 11 14 21 22 19 17 16 16 14 14 14 13 12 9 8 12 13 8 9 10 10 10 10 9 9 9 10 12 12 12 14 15 16 17 16 16 15 14 13 17 19
12 12 15 17 17 16 16 17 17 16 15 13 13 12 11 11 11 13 14 12 12 12 12 11 11 12 12 12 12 13 13 14 14 18 20 20 20 21 20 18 22 20 20
12 15 16 16 17 15 16 18 14 13 13 13 13 12 13 12 14 14 15 12 13 14 13 13 14 16 15 14 14 13 14 14 13 13 18 21 22 22 21 25 24 21 22
13 15 15 13 15 15 15 13 13 13 13 11 12 12 12 13 12 14 15 15 15 14 12 15 17 21 15 18 21 17 18 16 15 14 17 19 22 25 27 27 25 25 23
16 14 14 13 13 13 13 12 12 11 10 11 11 12 16 17 17 16 17 19 19 18 16 15 12 14 16 14 17 21 23 23 21 21 21 21 21 20 17 20 23 22 22
14 13 13 12 12 13 13 13 13 12 13 13 15 15 15 15 17 19 19 20 21 23 18 19 17 8 11 15 21 24 23 19 20 22 23 23 22 21 20 22 20 19 18
14 12 12 12 12 12 13 14 14 16 17 16 17 15 15 16 15 17 21 22 22 23 25 26 25 22 20 21 19 20 21 21 22 22 22 23 21 18 15 14 15 17 17
15 14 13 14 15 15 15 16 18 17 15 14 17 16 15 15 6 11 14 19 19 21 23 21 22 23 21 24 24 25 25 25 21 18 18 18 15 15 15 17 17 16 17
17 17 17 17 20 15 17 13 16 19 11 19 20 17 14 10 6 5 5 9 10 10 10 18 19 19 20 21 18 22 14 14 17 21 16 15 18 19 20 18 17 20 21
20 17 18 16 15 16 15 11 14 23 25 25 25 26 26 23 21 17 13 14 16 17 14 21 23 23 23 21 22 18 17 17 12 12 17 17 19 19 17 18 20 19 19
22 21 17 17 16 17 20 21 19 21 22 24 30 32 31 31 30 29 26 23 18 21 23 26 25 25 24 25 19 19 19 18 18 17 18 18 18 17 17 19 17 18 17
24 24 23 21 19 18 18 16 16 19 15 16 17 22 27 27 26 29 28 25 24 25 26 26 28 28 29 25 19 19 19 20 18 18 19 19 18 18 18 20 19 18 17
23 25 24 23 22 24 17 21 19 21 20 21 18 25 20 25 21 22 26 26 26 26 26 25 28 28 32 24 19 19 20 21 21 19 20 20 20 20 21 19 19 17 14
23 28 32 27 25 22 23 29 21 26 20 22 15 25 30 26 22 21 24 27 25 24 23 25 26 25 28 26 24 22 25 25 24 23 22 22 21 21 21 21 20 18 19
23 21 21 29 26 24 23 19 28 23 19 20 24 37 40 29 26 26 24 23 28 28 26 26 25 26 25 22 28 28 28 28 26 25 24 24 23 22 22 22 21 19 20
19 17 20 19 22 26 31 22 32 25 29 18 34 40 33 29 28 27 26 30 33 33 33 30 30 28 25 28 28 30 29 28 27 26 26 25 24 24 22 21 17 20 19
20 18 19 20 21 24 25 23 24 31 23 27 33 29 20 19 21 26 30 29 31 31 32 35 33 30 29 27 26 31 30 31 30 29 28 27 25 22 19 19 15 12 17
20 23 24 23 23 24 26 23 30 33 16 36 35 19 22 23 23 20 22 25 27 29 26 28 31 32 26 27 30 32 34 35 34 32 27 26 23 16 11 6 4 15 18
22 23 27 19 20 23 26 23 22 19 24 30 22 23 26 25 26 21 17 22 23 34 28 30 26 28 29 30 31 33 37 38 36 37 27 19 13 12 7 6 17 22 19

GFSGL_925_spd_342.txt.gz
Wind_Speed
21 24 28 35 33 34 26 23 14 11 10 13 14 13 10 10 10 7 8 8 7 6 5 4 2 3 6 7 5 5 5 5 3 8 10 6 3 6 3 3 7 11 8
24 27 31 36 35 27 25 18 17 20 13 14 14 12 10 9 10 12 11 9 10 6 5 5 3 2 1 4 5 4 4 1 3 3 10 10 8 5 3 5 6 6 9
32 31 28 27 32 16 16 20 17 16 15 13 13 14 13 13 13 13 11 8 7 8 8 7 5 4 4 1 3 3 5 2 3 2 1 9 12 10 11 11 11 9 10
24 29 30 32 25 14 13 15 18 14 17 16 15 13 13 14 13 13 11 10 10 9 7 6 6 5 4 2 2 2 3 3 2 7 9 14 18 16 15 10 10 17 14
14 25 25 24 20 17 20 23 24 25 23 18 15 15 14 15 13 13 11 11 11 9 9 8 8 8 9 9 5 6 2 4 7 8 14 13 5 14 10 3 4 10 8
7 15 17 22 21 22 22 22 21 18 16 16 18 17 14 12 13 12 12 12 11 10 11 10 8 15 12 13 12 11 8 5 6 9 12 9 10 9 8 7 6 8 7
9 16 13 12 15 15 14 14 14 16 17 18 16 15 14 13 15 19 16 13 14 13 14 14 13 16 20 14 12 10 10 13 15 14 14 15 11 6 8 7 6 8 10
8 8 11 13 13 15 15 15 16 17 18 17 14 13 12 14 17 15 19 12 10 13 14 15 13 9 11 14 13 13 14 12 13 15 17 16 16 13 12 12 13 15 16
11 12 16 17 17 17 15 16 15 16 15 13 12 12 13 12 12 13 19 17 11 11 13 13 14 16 15 15 14 14 13 13 12 19 17 17 14 15 16 17 19 15 16
14 12 16 18 18 19 17 17 15 16 15 14 14 15 15 15 16 13 16 14 14 17 19 21 21 20 18 14 15 13 13 14 13 14 16 23 23 24 24 24 25 19 18
11 14 15 16 17 18 15 17 14 15 13 13 16 18 18 16 16 17 17 18 17 17 21 22 26 23 20 21 19 17 18 15 15 14 16 16 18 23 26 26 26 28 23
14 14 14 15 14 14 15 15 13 13 11 15 12 13 16 16 20 21 21 22 20 22 18 15 8 5 24 22 21 22 19 19 21 21 18 19 20 22 27 30 29 30 24
16 15 15 14 11 17 13 13 14 14 13 15 16 17 20 23 25 26 25 26 24 24 25 19 13 13 10 19 19 21 19 19 20 19 19 22 23 25 23 16 15 15 19
13 13 14 15 15 18 19 18 17 18 18 18 18 18 21 22 30 29 31 30 29 26 25 25 24 21 17 15 18 21 24 28 26 23 23 24 22 21 15 9 9 11 12
16 15 15 16 18 16 17 18 21 21 19 19 21 18 14 10 5 13 30 29 30 28 26 21 19 18 19 21 24 28 28 29 27 28 27 26 21 17 14 18 19 15 14
17 17 18 19 23 21 21 20 22 21 15 15 17 13 15 8 6 4 4 19 19 21 18 20 19 21 22 23 26 27 32 28 29 32 28 26 20 18 18 19 18 17 15
20 20 20 23 18 24 22 23 18 22 21 26 24 25 27 27 21 16 11 10 11 13 13 15 17 19 19 19 21 24 24 20 27 30 25 21 21 17 13 12 13 13 16
23 22 18 15 19 15 17 19 17 16 15 22 28 31 31 31 30 30 26 22 17 17 20 18 18 21 24 26 30 31 27 24 25 18 20 20 18 17 17 16 14 13 17
22 21 19 20 19 14 15 14 20 19 18 12 15 25 35 37 34 32 29 25 20 21 22 23 27 29 30 30 33 31 14 22 30 25 20 17 19 21 21 19 17 18 19
25 26 24 21 21 22 18 18 16 21 19 21 20 23 12 21 29 31 33 34 30 29 29 29 29 28 29 33 37 35 26 30 33 26 22 19 17 19 21 20 20 21 20
24 23 26 26 26 25 23 22 21 18 21 15 19 19 26 16 22 23 27 32 34 36 31 31 31 30 31 31 33 40 35 29 34 27 24 24 25 25 26 26 24 22 18
27 28 29 30 30 28 25 23 17 20 18 13 17 23 25 31 23 22 25 34 39 34 36 34 33 32 32 28 29 32 31 30 29 27 27 28 29 29 29 27 23 21 21
21 25 28 27 34 35 27 24 24 22 24 24 24 33 29 27 28 29 30 32 42 41 34 34 32 25 21 22 32 35 33 40 35 36 34 32 30 29 28 26 24 23 22
21 19 20 19 15 21 27 28 30 28 27 24 28 27 29 29 29 33 33 33 39 32 36 34 30 33 40 40 36 40 37 48 46 40 38 33 30 30 29 27 25 19 17
20 21 22 18 16 16 26 28 26 25 33 31 29 31 32 31 33 39 39 26 13 27 32 33 28 27 28 31 45 31 45 44 48 39 37 36 33 34 31 30 27 21 19
28 25 21 22 18 10 32 33 19 21 23 29 33 36 33 34 33 25 21 21 27 38 28 29 30 17 13 21 30 42 23 28 30 32 39 28 27 22 22 22 19 12 6

GFSGL_925_spd_345.txt.gz
Wind_Speed
32 34 34 39 39 38 35 21 15 13 14 13 12 11 11 13 15 13 10 8 10 9 7 8 6 8 11 11 11 12 11 10 13 14 18 14 9 11 13 8 7 6 7
22 27 32 33 34 34 33 20 15 17 17 12 12 15 14 15 14 13 12 11 10 9 7 8 7 6 9 8 7 10 9 12 15 14 15 13 10 10 7 8 8 9 10
14 17 26 31 33 33 31 23 18 21 20 15 14 16 14 14 14 15 15 9 11 8 8 7 5 6 9 9 8 7 7 7 9 10 8 10 10 9 9 8 8 7 10
10 23 27 27 28 26 21 18 16 17 17 13 15 16 15 14 14 16 16 12 10 11 9 8 8 10 9 9 9 7 5 7 6 2 3 8 13 14 13 9 10 9 13
7 22 25 24 20 15 15 14 18 18 16 17 19 16 14 15 14 15 15 13 15 13 10 10 10 7 8 7 7 6 5 6 3 4 6 8 5 14 19 7 6 3 6
7 9 15 15 15 24 16 22 22 22 22 25 18 17 17 19 16 16 16 17 15 13 13 12 9 11 10 8 7 5 3 5 4 2 3 1 4 8 7 4 2 1 2
5 8 12 16 16 19 27 23 25 26 23 17 16 17 16 16 14 15 15 15 13 14 13 13 10 9 12 13 12 11 11 11 12 12 11 9 9 6 4 2 2 3 5
4 4 6 9 12 14 17 18 16 15 15 17 16 17 17 16 16 16 15 14 13 14 15 14 14 13 10 18 12 11 10 10 11 15 17 13 14 12 11 12 10 9 12
8 9 8 9 13 15 14 15 15 15 16 16 16 16 15 13 13 16 18 18 14 12 13 14 17 16 11 11 15 16 16 12 12 13 18 17 12 10 10 10 13 11 13
14 13 11 10 11 13 15 17 16 17 17 15 14 14 13 15 16 14 16 20 18 15 15 16 16 17 15 17 18 18 16 18 17 16 15 17 22 23 19 21 21 20 18
14 15 16 17 16 17 15 15 14 17 14 16 16 17 17 17 17 17 16 19 21 19 18 18 19 22 23 22 22 22 22 18 15 15 15 14 15 16 19 22 26 29 27
17 16 17 17 16 16 14 15 17 15 16 18 17 19 19 19 19 19 22 23 22 23 23 17 11 8 20 29 26 27 25 20 18 19 20 20 19 19 20 22 23 28 30
15 17 18 17 18 17 18 17 17 17 16 15 17 19 21 23 24 26 26 26 25 24 23 24 19 15 10 12 25 31 27 24 23 23 25 25 25 26 25 24 25 20 23
20 19 19 18 17 17 19 20 19 18 18 17 22 24 25 26 28 31 31 30 30 29 29 25 23 22 24 17 11 22 25 26 27 28 29 28 29 28 27 25 20 16 16
23 22 21 20 18 23 21 21 23 24 25 26 27 26 24 22 27 32 34 34 34 33 32 28 26 25 24 25 25 26 28 28 29 32 31 31 31 28 26 25 21 18 17
25 23 23 22 22 24 26 25 27 25 27 28 26 23 22 14 12 7 13 30 33 31 26 26 27 28 28 28 28 27 27 28 29 30 32 31 31 30 29 27 24 24 21
26 26 26 26 24 26 27 25 22 31 31 28 26 24 23 22 19 17 14 9 22 25 23 27 27 26 30 28 28 29 30 28 27 31 31 31 32 28 31 30 27 24 20
30 27 28 26 27 26 27 26 25 20 23 28 33 31 29 26 26 22 20 19 21 25 29 31 31 30 30 30 30 28 27 25 23 22 22 25 26 31 34 32 26 27 25
32 28 29 25 22 18 26 28 25 26 26 28 27 24 27 30 31 28 25 26 29 29 31 32 34 34 33 33 33 33 33 29 28 29 28 29 34 35 36 33 30 28 25
34 34 31 27 23 21 23 22 18 26 30 28 27 28 26 22 24 26 32 35 33 32 32 34 36 36 35 35 35 37 35 36 38 37 35 34 38 34 37 37 34 30 29
27 26 32 32 30 29 24 21 23 21 26 29 32 34 31 27 23 25 25 30 36 37 38 36 33 33 37 36 35 34 34 38 40 39 37 33 34 37 41 40 37 33 31
24 29 25 28 27 23 23 28 26 28 27 30 32 30 32 31 27 32 29 29 30 33 38 36 36 39 41 39 35 30 33 36 30 19 32 37 36 41 43 41 38 36 35
28 31 28 32 29 30 29 31 27 26 28 32 35 34 33 35 36 34 32 34 36 36 37 37 36 38 38 40 38 34 27 15 18 21 25 34 36 37 37 37 38 35 33
39 30 30 33 29 29 33 29 26 22 22 22 25 29 29 29 29 31 32 32 33 36 34 36 40 38 37 45 39 26 15 11 18 25 24 24 30 31 42 37 36 37 35
25 31 25 18 17 16 19 16 11 16 21 24 29 33 34 34 35 35 36 35 33 33 35 37 39 39 38 32 24 28 29 23 30 43 40 35 28 25 29 31 38 34 35
17 18 18 15 17 18 13 12 16 31 31 30 28 35 34 26 24 38 35 27 28 25 23 16 19 21 19 18 20 24 24 30 35 33 39 38 40 35 29 29 26 15 9

GFSGL_925_spd_348.txt.gz
Wind_Speed
23 35 41 40 39 36 31 25 24 22 18 16 14 13 11 12 14 15 12 11 11 12 11 11 11 13 13 12 13 16 17 15 10 8 14 18 15 13 15 13 9 8 7
18 29 38 40 35 23 15 19 25 20 19 16 15 15 12 14 14 14 13 13 13 14 14 14 12 12 12 12 13 12 12 12 18 18 17 15 12 13 15 14 11 10 9
10 25 26 32 31 27 17 33 18 17 16 16 16 15 14 15 14 14 13 13 14 14 13 14 13 12 11 12 13 13 14 14 19 23 14 15 11 13 13 12 10 8 9
9 12 21 25 22 21 29 30 22 15 16 19 19 17 16 15 14 15 15 14 15 14 13 12 11 12 11 12 12 12 12 14 15 15 12 14 12 10 12 9 7 5 2
7 9 20 20 23 30 30 25 22 23 22 25 22 18 16 17 17 17 18 16 14 13 11 12 12 11 11 12 13 12 13 13 11 10 8 5 8 10 14 10 7 8 11
6 4 13 22 24 23 21 22 25 24 29 25 25 19 18 19 18 18 19 18 16 16 16 13 11 10 12 12 10 12 11 14 10 8 7 5 5 4 12 15 11 7 3
2 1 4 14 23 25 27 25 20 24 25 26 26 22 20 20 19 17 17 18 17 18 15 15 14 14 13 12 12 10 9 7 9 10 9 9 7 6 8 10 10 9 6
6 6 6 9 13 17 20 16 24 25 26 25 22 20 18 19 19 17 17 18 18 18 17 17 16 15 14 14 15 14 12 11 11 13 15 15 14 12 13 11 11 10 9
9 8 7 8 11 13 17 17 19 19 20 18 18 18 20 19 20 16 19 18 16 17 17 16 15 14 13 12 14 17 14 14 12 11 9 11 13 11 10 11 12 11 7
10 10 9 10 11 12 13 11 12 13 14 14 16 18 19 18 16 18 22 22 19 17 16 16 16 18 20 16 16 20 20 20 17 15 14 13 10 13 15 16 14 14 12
11 11 11 10 12 14 15 15 16 16 16 19 18 17 16 15 16 17 18 22 23 21 19 18 19 16 16 18 20 23 24 19 17 15 15 15 14 12 12 16 21 23 24
16 16 16 16 14 15 17 16 17 17 18 19 17 15 15 16 18 20 20 21 20 23 23 22 14 9 10 18 21 24 23 21 16 14 14 15 17 18 18 16 17 19 23
19 20 18 17 17 17 18 16 16 17 19 17 17 18 17 18 20 22 22 24 22 22 21 20 19 17 16 15 9 15 26 24 21 19 20 23 23 22 22 23 23 21 21
22 22 21 21 20 19 20 21 20 21 21 19 20 21 22 24 24 25 25 25 26 26 25 23 21 19 20 22 20 15 16 27 27 26 27 27 26 26 26 25 23 22 21
24 22 22 22 21 22 21 23 25 26 26 25 26 26 26 25 27 26 27 28 30 31 29 27 27 25 24 24 25 22 19 17 25 27 28 29 31 31 30 28 24 22 22
25 24 24 24 23 23 24 23 24 26 26 27 28 28 28 29 27 24 27 28 28 30 26 29 29 31 30 30 29 27 25 25 27 30 33 33 32 30 32 29 24 24 27
26 25 26 26 26 25 25 24 20 26 27 26 30 30 30 31 25 22 20 16 15 24 23 28 29 28 31 30 30 30 30 29 29 30 31 31 31 30 28 29 28 26 30
32 31 31 30 29 27 26 27 24 18 18 26 35 36 34 33 28 28 25 21 20 23 29 28 30 32 33 33 32 32 32 31 29 28 29 30 30 32 29 28 27 29 27
32 29 31 30 31 30 28 28 26 24 24 28 29 25 33 39 40 35 32 30 31 30 31 34 34 34 36 37 36 34 33 33 34 32 33 32 33 32 32 31 32 34 31
34 34 32 31 30 30 32 27 25 24 24 25 25 29 28 27 30 31 35 37 35 36 37 38 39 40 39 38 38 38 38 38 37 38 37 36 34 33 34 31 32 30 29
29 27 30 28 26 28 26 26 27 27 26 26 29 38 38 35 35 35 34 36 40 41 40 39 38 38 39 40 41 40 38 39 40 38 36 36 34 33 32 31 30 32 32
21 19 22 29 28 23 25 30 28 25 27 27 32 35 36 37 32 36 39 41 41 42 40 35 36 37 36 36 38 39 38 39 40 36 32 29 24 26 28 29 28 30 33
21 23 25 26 29 30 28 29 25 25 27 31 33 30 26 32 34 35 37 41 42 42 41 39 38 38 36 36 34 35 37 37 38 35 29 27 24 26 29 31 30 27 28
26 28 26 24 18 24 24 27 28 26 29 32 30 31 30 32 35 36 43 38 39 41 39 39 40 38 37 37 37 35 36 32 30 33 30 29 33 33 32 27 30 32 30
31 22 19 21 19 21 25 28 30 28 30 30 29 32 33 33 30 33 40 41 40 40 37 36 37 35 35 35 38 38 35 32 33 36 32 34 35 31 29 31 29 30 30
23 21 23 22 22 27 30 30 31 30 29 31 25 22 25 30 32 36 41 38 41 37 37 32 34 36 36 35 36 35 29 27 31 33 31 24 24 27 27 28 28 31 30